FIN50A EFHK-ESSA

Flight info

Callsign FIN50A
Flight time 0h 42m
Altitude 26000
Route ADIVO Y365 POGOK DCT RUNGA N872 XILAN
Aircraft A320/M-SDE3FGHIRWY/LB1

Departure

Time 2026-04-22 22:19
Airport Helsinki Vantaa Airport (EFHK)

Arrival

Time 2026-04-22 23:01
Airport Stockholm-Arlanda Airport (ESSA)
Time Latitude Longitude Altitude Speed Heading
2026-04-22 21:57 60.31824 24.97039 167 ft 0 kts 243°
2026-04-22 22:08 60.31827 24.97051 166 ft 2 kts 240°
2026-04-22 22:09 60.31835 24.97080 166 ft 2 kts 239°
2026-04-22 22:09 60.31843 24.97109 166 ft 2 kts 235°
2026-04-22 22:09 60.31853 24.97135 166 ft 2 kts 220°
2026-04-22 22:09 60.31868 24.97150 166 ft 2 kts 158°
2026-04-22 22:10 60.31883 24.97135 166 ft 2 kts 153°
2026-04-22 22:10 60.31897 24.97120 166 ft 2 kts 153°
2026-04-22 22:10 60.31912 24.97105 166 ft 2 kts 153°
2026-04-22 22:10 60.31927 24.97090 166 ft 2 kts 153°
2026-04-22 22:11 60.31941 24.97075 166 ft 2 kts 153°
2026-04-22 22:11 60.31949 24.97068 166 ft 1 kts 153°
2026-04-22 22:11 60.31949 24.97067 166 ft 0 kts 153°
2026-04-22 22:14 60.31948 24.97069 166 ft 0 kts 153°
2026-04-22 22:14 60.31945 24.97072 166 ft 2 kts 153°
2026-04-22 22:14 60.31931 24.97166 165 ft 12 kts 66°
2026-04-22 22:15 60.31883 24.97285 162 ft 13 kts 153°
2026-04-22 22:15 60.31805 24.97363 161 ft 13 kts 154°
2026-04-22 22:15 60.31724 24.97447 159 ft 13 kts 153°
2026-04-22 22:15 60.31642 24.97533 159 ft 13 kts 153°
2026-04-22 22:16 60.31556 24.97621 156 ft 14 kts 153°
2026-04-22 22:16 60.31471 24.97710 156 ft 13 kts 153°
2026-04-22 22:16 60.31391 24.97791 156 ft 14 kts 153°
2026-04-22 22:16 60.31280 24.97901 158 ft 24 kts 156°
2026-04-22 22:17 60.31116 24.98075 158 ft 26 kts 153°
2026-04-22 22:17 60.30987 24.98208 158 ft 13 kts 138°
2026-04-22 22:17 60.30989 24.98377 155 ft 14 kts 64°
2026-04-22 22:17 60.31053 24.98477 156 ft 11 kts 332°
2026-04-22 22:18 60.31136 24.98391 158 ft 32 kts 332°
2026-04-22 22:18 60.31526 24.97999 153 ft 93 kts 334°
2026-04-22 22:18 60.32251 24.97245 170 ft 138 kts 337°
2026-04-22 22:18 60.33101 24.96344 736 ft 138 kts 335°
2026-04-22 22:19 60.33929 24.95323 1369 ft 142 kts 329°
2026-04-22 22:19 60.34694 24.93908 1762 ft 162 kts 317°
2026-04-22 22:19 60.35358 24.91789 2049 ft 192 kts 301°
2026-04-22 22:19 60.35720 24.89036 2398 ft 220 kts 282°
2026-04-22 22:20 60.35588 24.85760 2871 ft 246 kts 259°
2026-04-22 22:20 60.34836 24.82583 3631 ft 257 kts 241°
2026-04-22 22:20 60.33875 24.79547 4365 ft 256 kts 242°
2026-04-22 22:20 60.32877 24.76367 4845 ft 277 kts 242°
2026-04-22 22:21 60.31835 24.73039 5623 ft 283 kts 242°
2026-04-22 22:21 60.30778 24.69664 6515 ft 287 kts 243°
2026-04-22 22:21 60.29724 24.66202 7323 ft 289 kts 250°
2026-04-22 22:21 60.29188 24.62396 8114 ft 280 kts 272°
2026-04-22 22:22 60.29161 24.58499 8958 ft 277 kts 281°
2026-04-22 22:22 60.29314 24.54618 9784 ft 278 kts 284°
2026-04-22 22:22 60.29496 24.50666 10284 ft 293 kts 283°
2026-04-22 22:22 60.29662 24.46397 10551 ft 316 kts 281°
2026-04-22 22:23 60.29770 24.41953 11127 ft 326 kts 280°
2026-04-22 22:23 60.29822 24.37361 11838 ft 331 kts 279°
2026-04-22 22:23 60.29837 24.32677 12564 ft 336 kts 278°
2026-04-22 22:23 60.29830 24.27925 13295 ft 340 kts 278°
2026-04-22 22:24 60.29817 24.23138 13981 ft 344 kts 278°
2026-04-22 22:24 60.29803 24.18276 14609 ft 348 kts 278°
2026-04-22 22:24 60.29789 24.13373 15233 ft 351 kts 278°
2026-04-22 22:24 60.29775 24.08427 15868 ft 355 kts 278°
2026-04-22 22:25 60.29762 24.03437 16490 ft 358 kts 279°
2026-04-22 22:25 60.29701 23.98371 17095 ft 367 kts 273°
2026-04-22 22:25 60.29240 23.93218 17694 ft 378 kts 266°
2026-04-22 22:25 60.28681 23.88027 18288 ft 381 kts 266°
2026-04-22 22:26 60.28109 23.82768 18814 ft 385 kts 266°
2026-04-22 22:26 60.27530 23.77482 19342 ft 388 kts 266°
2026-04-22 22:26 60.26946 23.72154 19874 ft 391 kts 266°
2026-04-22 22:26 60.26359 23.66792 20411 ft 394 kts 266°
2026-04-22 22:27 60.25767 23.61392 20956 ft 397 kts 265°
2026-04-22 22:27 60.25168 23.55959 21498 ft 399 kts 265°
2026-04-22 22:27 60.24560 23.50473 22035 ft 402 kts 265°
2026-04-22 22:27 60.23946 23.44956 22573 ft 405 kts 265°
2026-04-22 22:28 60.23330 23.39440 23097 ft 408 kts 265°
2026-04-22 22:28 60.22698 23.33812 23592 ft 411 kts 264°
2026-04-22 22:28 60.22061 23.28193 24011 ft 414 kts 264°
2026-04-22 22:28 60.21416 23.22521 24432 ft 416 kts 264°
2026-04-22 22:29 60.20766 23.16827 24840 ft 418 kts 264°
2026-04-22 22:29 60.20112 23.11118 25245 ft 420 kts 263°
2026-04-22 22:29 60.19453 23.05375 25644 ft 422 kts 263°
2026-04-22 22:29 60.18789 22.99615 25895 ft 424 kts 263°
2026-04-22 22:30 60.18131 22.93976 25947 ft 413 kts 263°
2026-04-22 22:30 60.17472 22.88420 25951 ft 405 kts 263°
2026-04-22 22:30 60.16824 22.82930 25954 ft 402 kts 263°
2026-04-22 22:30 60.16187 22.77474 25958 ft 401 kts 263°
2026-04-22 22:31 60.15553 22.72026 25956 ft 401 kts 263°
2026-04-22 22:31 60.14914 22.66556 25961 ft 401 kts 263°
2026-04-22 22:31 60.14274 22.61116 25961 ft 401 kts 263°
2026-04-22 22:31 60.13628 22.55656 25965 ft 401 kts 263°
2026-04-22 22:32 60.12980 22.50216 25966 ft 401 kts 263°
2026-04-22 22:32 60.12340 22.44857 25961 ft 401 kts 262°
2026-04-22 22:32 60.11684 22.39400 25962 ft 401 kts 262°
2026-04-22 22:32 60.11028 22.33975 25963 ft 401 kts 262°
2026-04-22 22:33 60.10369 22.28544 25965 ft 401 kts 262°
2026-04-22 22:33 60.09708 22.23113 25964 ft 401 kts 262°
2026-04-22 22:33 60.09047 22.17686 25965 ft 401 kts 262°
2026-04-22 22:33 60.08383 22.12269 25968 ft 401 kts 262°
2026-04-22 22:34 60.07714 22.06841 25967 ft 400 kts 262°
2026-04-22 22:34 60.07044 22.01433 25965 ft 400 kts 262°
2026-04-22 22:34 60.06372 21.96025 25974 ft 400 kts 262°
2026-04-22 22:34 60.05696 21.90617 25971 ft 400 kts 261°
2026-04-22 22:35 60.05019 21.85213 25977 ft 400 kts 261°
2026-04-22 22:35 60.04341 21.79815 25972 ft 400 kts 261°
2026-04-22 22:35 60.03661 21.74418 25974 ft 400 kts 261°
2026-04-22 22:35 60.02979 21.69021 25979 ft 400 kts 261°
2026-04-22 22:36 60.02297 21.63627 25976 ft 400 kts 261°
2026-04-22 22:36 60.01615 21.58244 25979 ft 400 kts 261°
2026-04-22 22:36 60.00929 21.52850 25982 ft 400 kts 261°
2026-04-22 22:36 60.00238 21.47469 25981 ft 400 kts 261°
2026-04-22 22:37 59.99542 21.42089 25981 ft 400 kts 261°
2026-04-22 22:37 59.98844 21.36712 25987 ft 400 kts 261°
2026-04-22 22:37 59.98120 21.31327 25987 ft 401 kts 260°
2026-04-22 22:37 59.97376 21.25967 25993 ft 401 kts 259°
2026-04-22 22:38 59.96621 21.20620 25990 ft 401 kts 259°
2026-04-22 22:38 59.95862 21.15265 25993 ft 401 kts 259°
2026-04-22 22:38 59.95105 21.09915 25993 ft 401 kts 259°
2026-04-22 22:38 59.94350 21.04563 25996 ft 401 kts 259°
2026-04-22 22:39 59.93594 20.99218 26000 ft 401 kts 259°
2026-04-22 22:39 59.92833 20.93866 26001 ft 401 kts 259°
2026-04-22 22:39 59.92072 20.88513 26002 ft 401 kts 259°
2026-04-22 22:39 59.91322 20.83244 26007 ft 401 kts 259°
2026-04-22 22:40 59.90558 20.77898 26010 ft 401 kts 259°
2026-04-22 22:40 59.89794 20.72558 26012 ft 401 kts 259°
2026-04-22 22:40 59.89029 20.67229 26020 ft 401 kts 259°
2026-04-22 22:40 59.88259 20.61883 26017 ft 401 kts 259°
2026-04-22 22:41 59.87488 20.56544 26017 ft 401 kts 259°
2026-04-22 22:41 59.86715 20.51205 26017 ft 401 kts 259°
2026-04-22 22:41 59.85941 20.45889 26025 ft 401 kts 259°
2026-04-22 22:41 59.85160 20.40549 26009 ft 400 kts 259°
2026-04-22 22:42 59.84385 20.35284 25767 ft 393 kts 259°
2026-04-22 22:42 59.83623 20.30126 25518 ft 384 kts 259°
2026-04-22 22:42 59.82874 20.25070 25270 ft 379 kts 259°
2026-04-22 22:42 59.82130 20.20059 25023 ft 376 kts 259°
2026-04-22 22:43 59.81392 20.15077 24698 ft 375 kts 259°
2026-04-22 22:43 59.80650 20.10032 23760 ft 388 kts 258°
2026-04-22 22:43 59.79884 20.04828 22887 ft 389 kts 258°
2026-04-22 22:43 59.79117 19.99729 22103 ft 382 kts 258°
2026-04-22 22:44 59.78357 19.94742 21623 ft 374 kts 258°
2026-04-22 22:44 59.77605 19.89816 21155 ft 372 kts 258°
2026-04-22 22:44 59.76860 19.84910 20703 ft 369 kts 258°
2026-04-22 22:44 59.76122 19.80038 20251 ft 367 kts 258°
2026-04-22 22:45 59.75388 19.75196 19803 ft 366 kts 258°
2026-04-22 22:45 59.74660 19.70375 19360 ft 364 kts 259°
2026-04-22 22:45 59.73976 19.65565 18932 ft 361 kts 260°
2026-04-22 22:45 59.73324 19.60769 18495 ft 360 kts 260°
2026-04-22 22:46 59.72691 19.56047 18044 ft 358 kts 260°
2026-04-22 22:46 59.72052 19.51295 17610 ft 355 kts 260°
2026-04-22 22:46 59.71411 19.46583 17203 ft 353 kts 260°
2026-04-22 22:46 59.70761 19.41859 16787 ft 350 kts 260°
2026-04-22 22:47 59.70116 19.37216 16376 ft 348 kts 260°
2026-04-22 22:47 59.69472 19.32615 15978 ft 346 kts 259°
2026-04-22 22:47 59.68824 19.28038 15589 ft 344 kts 259°
2026-04-22 22:47 59.68180 19.23497 15189 ft 342 kts 259°
2026-04-22 22:48 59.67545 19.19027 14793 ft 341 kts 259°
2026-04-22 22:48 59.66905 19.14528 14400 ft 339 kts 259°
2026-04-22 22:48 59.66269 19.10044 14005 ft 338 kts 259°
2026-04-22 22:48 59.65637 19.05587 13588 ft 336 kts 259°
2026-04-22 22:49 59.65007 19.01155 13180 ft 333 kts 259°
2026-04-22 22:49 59.64377 18.96764 12786 ft 330 kts 259°
2026-04-22 22:49 59.63750 18.92403 12396 ft 328 kts 259°
2026-04-22 22:49 59.63129 18.88083 11994 ft 325 kts 259°
2026-04-22 22:50 59.62514 18.83804 11602 ft 323 kts 259°
2026-04-22 22:50 59.61898 18.79551 11195 ft 321 kts 259°
2026-04-22 22:50 59.61281 18.75327 10823 ft 314 kts 259°
2026-04-22 22:50 59.60687 18.71300 10475 ft 300 kts 259°
2026-04-22 22:51 59.60115 18.67404 10035 ft 291 kts 259°
2026-04-22 22:51 59.59565 18.63642 9638 ft 280 kts 259°
2026-04-22 22:51 59.59036 18.60030 9268 ft 268 kts 259°
2026-04-22 22:51 59.58534 18.56587 8924 ft 265 kts 259°
2026-04-22 22:52 59.58044 18.53199 8571 ft 264 kts 259°
2026-04-22 22:52 59.57547 18.49776 8215 ft 262 kts 259°
2026-04-22 22:52 59.57041 18.46325 7851 ft 261 kts 258°
2026-04-22 22:52 59.56526 18.42849 7482 ft 260 kts 258°
2026-04-22 22:53 59.56025 18.39472 7113 ft 259 kts 258°
2026-04-22 22:53 59.55519 18.36068 6737 ft 259 kts 257°
2026-04-22 22:53 59.55010 18.32669 6350 ft 258 kts 257°
2026-04-22 22:53 59.54501 18.29278 5956 ft 257 kts 257°
2026-04-22 22:54 59.53993 18.25903 5558 ft 256 kts 257°
2026-04-22 22:54 59.53490 18.22560 5170 ft 255 kts 257°
2026-04-22 22:54 59.53050 18.19192 4776 ft 252 kts 263°
2026-04-22 22:54 59.52746 18.15766 4290 ft 255 kts 263°
2026-04-22 22:55 59.52436 18.12322 3839 ft 255 kts 263°
2026-04-22 22:55 59.52123 18.08872 3433 ft 255 kts 263°
2026-04-22 22:55 59.51516 18.02380 3278 ft 230 kts 263°
2026-04-22 22:56 59.51227 17.99290 3179 ft 228 kts 264°
2026-04-22 22:56 59.50945 17.96251 3073 ft 222 kts 264°
2026-04-22 22:56 59.50674 17.93340 2998 ft 210 kts 265°
2026-04-22 22:56 59.50744 17.90599 2998 ft 196 kts 297°
2026-04-22 22:57 59.51504 17.88565 3040 ft 174 kts 327°
2026-04-22 22:57 59.52183 17.87861 3021 ft 160 kts 345°
2026-04-22 22:57 59.53231 17.87575 2873 ft 150 kts
2026-04-22 22:57 59.54263 17.87918 2425 ft 149 kts 11°
2026-04-22 22:58 59.55231 17.88314 2144 ft 137 kts
2026-04-22 22:58 59.56138 17.88599 1909 ft 128 kts
2026-04-22 22:58 59.57298 17.89006 1441 ft 127 kts
2026-04-22 22:58 59.57886 17.89215 1204 ft 126 kts
2026-04-22 22:59 59.58728 17.89535 1031 ft 123 kts 10°
2026-04-22 22:59 59.59564 17.89855 899 ft 122 kts
2026-04-22 22:59 59.60414 17.90136 745 ft 125 kts
2026-04-22 22:59 59.61279 17.90439 623 ft 128 kts
2026-04-22 23:00 59.62153 17.90763 485 ft 128 kts
2026-04-22 23:00 59.63033 17.91070 307 ft 129 kts
2026-04-22 23:00 59.63895 17.91384 141 ft 123 kts
2026-04-22 23:00 59.64624 17.91647 111 ft 75 kts 10°
2026-04-22 23:01 59.64921 17.91752 105 ft 33 kts 10°
2026-04-22 23:01 59.65127 17.91856 104 ft 29 kts 25°
2026-04-22 23:01 59.65283 17.92073 104 ft 25 kts 43°
2026-04-22 23:01 59.65306 17.92117 103 ft 0 kts 43°
2026-04-22 23:02 59.65309 17.92123 103 ft 4 kts 43°
2026-04-22 23:02 59.65316 17.92271 105 ft 15 kts 110°
2026-04-22 23:02 59.65289 17.92420 110 ft 9 kts 109°
2026-04-22 23:02 59.65273 17.92511 112 ft 6 kts 110°
2026-04-22 23:03 59.65266 17.92534 111 ft 13 kts 126°
2026-04-22 23:03 59.65210 17.92577 112 ft 5 kts 155°
2026-04-22 23:03 59.65179 17.92603 112 ft 4 kts 160°
2026-04-22 23:03 59.65165 17.92612 112 ft 0 kts 161°